Wind_Speed
15 15 16 17 17 17 18 19 19 20 20 20 20 20 21 21 22 24 25 25 26 27 27 28 29 29 29 29 30 30 30 30 31 32 32 33 32 32
15 16 16 17 17 18 18 19 19 19 19 19 20 20 21 22 23 23 24 25 25 26 26 27 27 28 28 29 30 31 31 32 31 31 32 33 33 34
16 16 16 17 18 18 18 18 18 18 18 19 20 20 20 22 23 24 25 25 25 26 27 27 26 27 28 29 30 30 31 31 32 33 32 33 33 33
16 16 16 16 17 18 18 18 18 18 18 18 19 19 20 21 21 23 24 25 25 26 27 27 27 28 28 29 30 31 31 31 32 33 33 33 34 34
16 16 16 17 17 17 17 18 17 17 18 19 18 20 21 21 22 23 24 25 26 26 27 28 27 28 28 29 30 31 32 32 33 34 34 34 35 36
16 16 16 16 16 17 18 18 19 19 19 20 20 21 21 22 23 23 23 24 25 26 27 27 27 27 28 29 30 31 32 33 34 35 36 36 36 37
16 17 18 18 18 18 18 19 20 20 21 22 22 23 23 23 23 24 24 24 25 25 25 26 26 27 27 28 29 30 31 32 33 34 35 36 37 37
16 16 17 18 18 18 19 19 19 20 21 22 22 23 23 23 23 23 23 24 24 24 24 24 25 26 26 27 28 30 31 32 33 33 34 36 37 37
16 16 17 18 18 19 19 19 20 21 21 22 22 22 22 22 23 23 23 23 23 23 24 23 24 25 26 27 28 29 30 32 33 33 33 34 35 36
18 18 18 19 19 19 19 20 20 21 21 21 21 21 22 22 22 22 23 23 23 23 24 24 25 25 25 26 26 27 28 30 31 32 33 34 35 35
19 19 19 19 19 19 20 20 21 21 21 21 22 22 22 22 22 22 22 23 23 23 24 24 25 25 25 25 26 26 27 28 29 31 32 32 34 35
21 21 21 20 20 20 20 20 21 21 21 22 23 23 23 23 24 24 23 24 24 24 25 25 25 26 26 26 27 27 28 28 29 30 31 32 33 34
22 22 22 21 21 21 21 21 21 21 22 23 23 23 24 24 25 25 26 25 26 26 26 27 27 27 27 27 28 28 28 29 30 30 31 32 32 33
23 23 23 22 22 23 23 22 22 23 23 23 23 23 24 25 26 26 26 26 26 27 27 27 28 28 29 29 29 29 30 30 31 31 31 32 32 32
23 23 23 23 23 23 23 23 24 24 24 24 24 24 24 25 25 25 25 25 26 27 27 28 29 29 29 29 29 29 30 30 31 31 32 32 32 32
23 23 23 23 23 23 23 24 25 25 24 24 24 24 25 25 25 25 25 26 26 27 27 28 28 29 29 29 29 29 29 30 31 31 32 32 33 33
24 24 24 24 24 24 24 24 25 25 25 25 25 26 26 26 26 27 26 27 27 27 27 27 28 27 27 28 28 29 29 30 30 31 31 32 32 32
24 24 23 23 24 24 24 25 25 25 25 25 26 27 27 27 28 28 27 27 27 26 26 26 26 26 26 27 27 28 28 29 29 30 30 31 30 30
24 24 24 24 25 25 26 26 26 26 26 26 26 26 27 27 28 27 27 27 26 26 25 25 25 26 27 27 28 28 29 29 29 29 29 29 29 29
24 23 24 24 25 25 25 25 26 26 26 26 26 26 27 27 27 27 27 26 26 26 26 26 26 26 26 27 27 27 27 28 27 27 28 28 28 28
23 23 24 24 24 24 24 25 25 26 26 26 27 26 26 26 26 26 26 25 25 25 24 24 25 25 25 26 25 25 26 26 26 26 26 27 27 27
23 23 23 23 24 24 24 25 26 26 26 26 26 26 25 25 25 25 25 24 24 24 24 24 25 25 26 26 26 25 25 25 25 25 25 26 26 26
23 23 23 24 24 24 24 25 25 26 26 26 26 25 24 24 24 24 24 24 24 24 24 25 25 25 25 25 25 25 25 24 24 24 24 25 25 25
Wind_Direction
278 275 271 268 271 273 270 270 273 274 274 273 274 272 269 269 270 270 269 269 267 267 267 267 263 262 259 257 257 257 256 255 253 252 251 250 249 248
277 276 272 270 271 272 270 272 274 274 274 275 275 274 273 270 271 271 271 271 269 267 267 267 265 262 259 258 258 259 257 255 254 254 253 251 249 249
281 278 277 274 273 273 273 273 274 274 275 276 277 277 277 276 275 272 271 271 271 269 267 266 265 264 262 260 260 259 257 255 255 254 253 252 251 250
287 284 284 282 279 278 277 276 276 276 276 279 279 279 279 280 278 276 274 273 272 271 269 267 267 266 265 263 261 259 258 256 254 253 254 253 251 251
287 288 288 288 286 283 281 278 276 276 277 279 280 281 281 282 281 279 279 277 275 273 271 269 269 267 266 265 262 259 258 258 257 255 253 253 253 253
290 290 290 290 292 289 285 279 276 275 276 279 280 281 281 282 283 282 281 281 279 275 274 271 270 269 269 266 263 261 260 260 259 257 256 255 254 254
290 289 288 287 290 290 287 283 281 279 279 281 282 282 282 282 285 286 285 284 283 279 276 274 272 270 269 267 265 262 261 261 261 259 258 257 255 254
288 288 286 286 288 290 289 286 285 285 284 283 283 282 282 282 283 285 285 284 284 280 277 275 275 272 269 267 265 264 263 262 262 261 261 259 257 256
288 289 290 290 290 290 289 287 287 286 285 284 283 282 282 281 282 282 282 282 282 280 278 278 277 274 270 269 268 267 266 265 263 263 262 260 257 257
287 287 288 289 288 289 288 289 289 288 288 286 285 283 282 283 282 281 281 282 282 281 280 278 277 275 273 272 270 270 268 268 267 265 264 262 260 258
287 287 288 289 289 289 289 289 289 288 287 286 286 286 285 284 283 284 285 285 283 282 281 280 279 278 277 277 275 274 273 272 270 268 265 264 263 262
288 288 289 289 289 289 288 289 290 289 287 287 287 287 286 285 285 286 287 286 284 283 283 282 280 278 277 276 275 274 273 273 272 269 268 268 267 265
287 288 289 289 288 287 287 288 289 288 288 288 288 288 286 286 285 285 285 285 284 283 281 280 279 279 278 276 275 274 273 274 272 270 269 269 269 266
286 287 288 287 286 287 287 288 288 287 287 288 289 288 288 287 287 286 285 285 285 284 282 282 281 279 278 276 275 274 274 274 272 271 270 269 269 266
285 286 287 287 287 288 287 288 288 288 288 288 288 289 289 289 288 287 286 285 285 284 283 283 283 282 281 279 277 275 274 273 273 272 271 270 269 267
284 284 285 287 288 288 288 289 289 288 287 287 288 289 289 290 290 290 289 287 285 284 285 285 285 284 284 283 280 279 278 277 275 274 273 271 271 270
282 284 286 288 289 288 288 289 291 290 288 288 288 290 291 291 291 291 290 289 289 288 287 287 287 287 286 285 283 281 279 278 277 276 274 273 272 271
283 284 286 287 288 289 289 290 292 292 290 290 290 290 290 291 291 291 290 290 290 290 288 288 287 286 286 286 286 284 282 280 278 277 275 274 273 272
284 285 286 287 289 289 290 290 291 292 292 294 293 291 291 291 291 291 291 290 290 289 288 289 288 288 287 286 287 287 286 283 281 278 276 276 274 272
285 284 285 287 288 290 290 289 290 291 293 294 294 292 291 291 291 291 291 290 290 289 289 290 290 291 292 290 288 288 287 285 282 280 278 277 275 272
288 286 287 289 289 290 291 290 290 292 293 294 294 293 291 291 291 291 290 290 289 288 288 289 290 291 292 291 291 290 288 286 283 281 280 278 276 274
289 288 288 290 291 293 292 291 291 292 294 294 293 293 292 291 292 292 292 290 290 289 289 289 290 291 292 292 291 291 290 287 284 282 281 280 278 275
289 289 290 290 291 294 296 295 293 293 294 294 294 294 293 292 292 292 292 292 290 290 290 291 292 293 293 293 292 292 290 288 286 284 282 282 280 277
Height
5798 5796 5796 5795 5795 5794 5794 5794 5794 5794 5793 5792 5792 5791 5791 5791 5791 5791 5791 5791 5791 5791 5791 5791 5791 5791 5792 5793 5794 5796 5797 5798 5800 5802 5804 5806 5808 5810
5794 5793 5792 5791 5790 5790 5790 5789 5789 5788 5788 5787 5787 5786 5786 5785 5785 5785 5784 5784 5784 5784 5784 5784 5784 5784 5785 5786 5787 5788 5789 5791 5792 5794 5795 5797 5799 5801
5791 5789 5788 5787 5786 5785 5785 5784 5783 5783 5782 5782 5781 5781 5780 5780 5779 5778 5778 5777 5777 5777 5777 5777 5777 5777 5778 5779 5779 5780 5781 5783 5784 5786 5787 5789 5791 5793
5787 5786 5784 5783 5782 5781 5780 5779 5779 5778 5777 5777 5776 5775 5774 5774 5773 5772 5771 5770 5770 5770 5770 5770 5770 5770 5771 5771 5772 5772 5773 5774 5776 5777 5779 5781 5782 5783
5783 5782 5780 5779 5778 5777 5775 5775 5774 5773 5773 5772 5771 5770 5769 5768 5767 5766 5764 5764 5763 5762 5762 5762 5762 5763 5763 5763 5763 5764 5765 5766 5767 5768 5770 5771 5773 5774
5779 5778 5776 5775 5774 5772 5771 5770 5769 5768 5767 5766 5765 5764 5763 5762 5761 5760 5758 5757 5756 5755 5754 5754 5754 5754 5755 5755 5756 5756 5756 5757 5758 5759 5760 5762 5763 5765
5775 5773 5772 5771 5769 5768 5766 5765 5764 5763 5762 5761 5760 5758 5757 5756 5755 5753 5752 5750 5748 5747 5747 5746 5746 5746 5746 5747 5747 5747 5748 5748 5749 5750 5751 5752 5753 5755
5770 5768 5767 5766 5765 5763 5762 5760 5759 5758 5756 5755 5754 5752 5751 5750 5748 5747 5745 5744 5742 5741 5740 5739 5738 5738 5738 5738 5738 5739 5739 5739 5740 5740 5741 5742 5743 5745
5766 5764 5762 5761 5760 5758 5756 5755 5754 5752 5751 5749 5748 5746 5745 5744 5742 5740 5739 5737 5736 5734 5733 5732 5731 5730 5730 5730 5730 5730 5730 5730 5730 5731 5731 5732 5733 5734
5761 5759 5757 5756 5754 5753 5751 5750 5748 5746 5745 5743 5742 5740 5739 5737 5735 5734 5732 5731 5729 5727 5726 5725 5724 5723 5722 5722 5722 5722 5722 5721 5722 5722 5722 5722 5723 5724
5755 5754 5752 5751 5749 5747 5746 5744 5742 5740 5738 5737 5736 5734 5732 5731 5729 5727 5726 5724 5722 5721 5719 5718 5717 5716 5715 5715 5714 5714 5714 5713 5713 5713 5713 5713 5714 5714
5749 5748 5746 5745 5743 5742 5740 5738 5736 5734 5732 5731 5729 5728 5726 5724 5722 5720 5719 5717 5715 5714 5712 5711 5710 5709 5708 5707 5706 5706 5706 5705 5705 5704 5704 5704 5704 5704
5743 5741 5740 5738 5737 5735 5733 5732 5730 5728 5726 5724 5722 5720 5718 5717 5715 5713 5711 5709 5708 5706 5705 5703 5702 5701 5700 5699 5698 5697 5697 5696 5696 5695 5695 5695 5695 5694
5736 5734 5733 5732 5730 5729 5727 5725 5723 5721 5720 5717 5715 5713 5711 5709 5707 5705 5703 5701 5700 5698 5696 5695 5694 5692 5691 5690 5689 5688 5687 5686 5686 5686 5686 5685 5685 5685
5729 5727 5726 5724 5723 5721 5720 5718 5716 5714 5712 5710 5708 5706 5704 5702 5699 5697 5695 5693 5691 5689 5688 5686 5684 5683 5682 5680 5679 5678 5678 5677 5676 5676 5676 5675 5675 5675
5722 5720 5719 5717 5716 5714 5712 5711 5709 5707 5704 5703 5701 5699 5696 5694 5692 5690 5687 5685 5683 5681 5679 5677 5675 5674 5672 5671 5670 5669 5668 5667 5666 5666 5665 5665 5665 5664
5715 5713 5712 5710 5708 5707 5705 5703 5701 5699 5697 5695 5693 5691 5689 5686 5684 5682 5680 5677 5675 5673 5671 5669 5667 5665 5663 5662 5661 5659 5658 5657 5656 5655 5655 5655 5654 5654
5708 5706 5705 5703 5701 5699 5697 5695 5693 5691 5689 5687 5685 5683 5681 5678 5676 5674 5671 5669 5667 5664 5663 5661 5659 5657 5656 5654 5652 5650 5649 5648 5647 5646 5644 5644 5644 5644
5700 5699 5697 5696 5694 5692 5690 5688 5686 5684 5681 5679 5677 5675 5672 5670 5667 5665 5663 5661 5659 5656 5655 5653 5651 5649 5647 5646 5644 5641 5639 5638 5637 5636 5635 5634 5634 5634
5693 5692 5690 5688 5686 5684 5682 5680 5678 5676 5674 5671 5669 5666 5664 5661 5659 5657 5655 5653 5651 5648 5647 5645 5643 5641 5639 5637 5635 5633 5630 5628 5627 5626 5625 5625 5624 5624
5685 5684 5682 5680 5678 5676 5674 5672 5670 5668 5666 5663 5660 5658 5656 5653 5651 5649 5647 5645 5643 5641 5639 5637 5635 5633 5630 5628 5627 5624 5622 5620 5618 5617 5616 5615 5615 5614
5678 5676 5675 5672 5671 5668 5666 5664 5662 5660 5657 5655 5652 5650 5648 5645 5643 5641 5639 5637 5635 5633 5631 5629 5627 5624 5622 5620 5618 5616 5614 5612 5610 5608 5607 5606 5605 5605
5671 5669 5667 5665 5663 5660 5658 5656 5654 5651 5649 5646 5644 5642 5640 5638 5635 5633 5631 5629 5627 5625 5623 5621 5619 5616 5614 5612 5609 5607 5605 5603 5601 5600 5599 5597 5596 5596